Погода в Амблсайде

Великобритания     54°25′56″N   2°57′35″W
В апреле 2022 года жителям России запретили посещать сайт meteo.paraplan.net по решению Генеральной прокуратуры. Аудитория сайта уменьшилась в 10 раз. Владельцы сайта не видят смысла в поддержке погодного сервера в таких условиях. Сайт будет закрыт в октябре.
темп.,
°C
ветер,
м/с
пор.,
м/с
влажн.,
%
обл.,
%
осадки,
мм/ч
давл.,
гПа
погр.,
м
30 сентября, пт
пт3001:00+7ююв3392100 0.0 100941
04:00+6ю3598100 0.0 1007130
07:00+8ю51398100 0.1 1003708
10:00+9ю81697100 0.8 998969
13:00+10ю92098100 18.4 9921353
16:00+12з6128944 20.8 991941
19:00+10з6139230 20.9 993653
22:00+9зюз5129368 0.2 995600
1 октября, сб
сб101:00+9з71192100 0.6 996895
04:00+9з71286100 0.3 997710
07:00+9з7129279 0.7 999792
10:00+9з81289100 0.3 10011110
13:00+9зюз9138894 0.4 10031064
16:00+11зюз914856 0.4 10041219
19:00+9з714905 1.0 1006707
22:00+9з7139027 0.1 1009689
2 октября, вс
вс201:00+8з6138817 0.3 1011583
04:00+9з5119019 0.3 1013628
07:00+8з378699 0.3 1015497
10:00+10зюз2784100 0.0 1016731
13:00+12з3572100 0.1 10171010
16:00+12з237116 0.0 1018944
19:00+8з11871 0.0 102010
22:00+7з11911 0.0 102111
3 октября, пн
пн301:00+7зсз019034 0.0 102210
04:00+7юз018799 0.0 102210
07:00+6ю1187100 0.0 102210
10:00+9ю238399 0.0 1022166
13:00+12ю347695 0.0 1021496
16:00+10ю3785100 0.0 1020465
19:00+10ю3687100 0.0 1019205
22:00+10ю4892100 0.0 1017242
4 октября, вт
вт401:00+9ю4797100 0.0 1016173
04:00+9ю4799100 0.0 1013233
07:00+10ю4998100 0.0 1011305
10:00+10ю51196100 0.0 1010396
13:00+13ю71589100 0.0 10071061
16:00+13ююз81890100 0.1 10051316
19:00+13юз81497100 0.9 10051041
22:00+9з41189100 0.1 1008516